FW0014 Weather Reports


time (UTC)temp
F
wind
direction
speed
knots
gust
knots
rain 1hr
in
rain 24hr
in
rain mn
in
humidity
%
barometer
mb
20260503230518 75 154 0.0 0.0 0.00 0.00 0.00 37 1017.5
20260503230333 76 149 0.0 0.0 0.00 0.00 0.00 37 1018.7
20260503230106 75 166 0.0 0.0 0.00 0.00 0.00 37 1017.5
20260503225825 76 181 0.0 0.0 0.00 0.00 0.00 36 1018.7
20260503225555 76 198 0.0 0.0 0.00 0.00 0.00 36 1017.5
20260503225323 76 174 0.0 0.0 0.00 0.00 0.00 38 1018.7
20260503225046 76 204 0.0 0.0 0.00 0.00 0.00 37 1017.4
20260503224840 76 158 0.0 0.0 0.00 0.00 0.00 38 1018.6
20260503224525 76 170 0.0 0.0 0.00 0.00 0.00 37 1017.4
20260503224314 76 129 0.0 0.0 0.00 0.00 0.00 37 1018.6
20260503224058 76 168 0.0 0.0 0.00 0.00 0.00 37 1017.6
20260503223831 76 183 0.0 0.0 0.00 0.00 0.00 36 1018.7
20260503223552 76 143 0.0 0.0 0.00 0.00 0.00 36 1017.6
20260503223325 76 151 0.0 0.0 0.00 0.00 0.00 36 1018.7
20260503223020 76 154 0.0 0.0 0.00 0.00 0.00 36 1017.6
20260503222820 76 187 0.0 0.0 0.00 0.00 0.00 36 1018.8
20260503222514 76 169 0.0 0.0 0.00 0.00 0.00 37 1017.7
20260503222316 76 160 0.0 0.0 0.00 0.00 0.00 36 1019.0
20260503222057 76 168 0.0 0.0 0.00 0.00 0.00 36 1017.8
20260503221831 76 166 0.0 0.0 0.00 0.00 0.00 36 1019.0
20260503221554 76 158 0.0 0.0 0.00 0.00 0.00 38 1017.8
20260503221327 76 181 0.0 0.0 0.00 0.00 0.00 37 1018.9
20260503221046 76 197 0.0 0.0 0.00 0.00 0.00 36 1017.7
20260503220842 76 188 0.0 0.0 0.00 0.00 0.00 37 1019.0
20260503220514 76 203 0.0 0.0 0.00 0.00 0.00 37 1018.0
20260503220316 76 170 0.0 0.0 0.00 0.00 0.00 38 1019.1
20260503220100 76 160 0.0 0.0 0.00 0.00 0.00 36 1018.0
20260503215828 76 162 0.0 0.0 0.00 0.00 0.00 37 1019.1
20260503215549 76 190 0.0 0.0 0.00 0.00 0.00 38 1018.0
20260503215324 76 213 0.0 0.0 0.00 0.00 0.00 36 1019.2
20260503215044 76 228 0.0 0.0 0.00 0.00 0.00 37 1018.1
20260503214819 76 195 0.0 8.7 0.00 0.00 0.00 37 1019.2
20260503214538 76 182 0.0 11.3 0.00 0.00 0.00 37 1018.2
20260503214315 76 195 0.0 11.3 0.00 0.00 0.00 37 1019.3
20260503214032 76 166 4.3 15.6 0.00 0.00 0.00 39 1018.2
20260503213832 76 206 8.7 15.6 0.00 0.00 0.00 37 1019.4
20260503213516 76 166 11.3 15.6 0.00 0.00 0.00 37 1018.5
20260503213328 76 171 12.2 15.6 0.00 0.00 0.00 38 1019.5
20260503213011 75 138 7.8 13.9 0.00 0.00 0.00 38 1018.5
20260503212824 76 154 10.4 13.9 0.00 0.00 0.00 36 1019.6
20260503212502 76 164 7.0 10.4 0.00 0.00 0.00 37 1018.7
20260503212319 76 202 7.0 10.4 0.00 0.00 0.00 38 1019.9
20260503212056 76 170 5.2 13.0 0.00 0.00 0.00 36 1018.8
20260503211815 76 187 6.1 13.0 0.00 0.00 0.00 38 1020.1
20260503211548 75 179 7.0 14.8 0.00 0.00 0.00 37 1019.0
20260503211332 76 151 9.6 14.8 0.00 0.00 0.00 36 1020.1
20260503211039 76 156 5.2 14.8 0.00 0.00 0.00 37 1019.0
20260503210848 76 156 9.6 14.8 0.00 0.00 0.00 36 1020.2
20260503210505 76 201 10.4 17.4 0.00 0.00 0.00 38 1019.1
20260503210323 76 164 8.7 17.4 0.00 0.00 0.00 37 1020.2
20260503205838 76 145 8.7 13.9 0.00 0.00 0.00 38 1020.4
20260503205534 76 162 7.0 14.8 0.00 0.00 0.00 38 1019.3
20260503205333 76 129 7.0 15.6 0.00 0.00 0.00 37 1020.3
20260503205018 75 168 9.6 14.8 0.00 0.00 0.00 37 1019.3
20260503204830 76 145 11.3 14.8 0.00 0.00 0.00 38 1020.4
20260503204512 75 138 8.7 14.8 0.00 0.00 0.00 37 1019.5
20260503204325 76 193 9.6 13.9 0.00 0.00 0.00 37 1020.4
20260503204005 76 198 5.2 16.5 0.00 0.00 0.00 36 1019.6
20260503203842 76 180 7.8 16.5 0.00 0.00 0.00 36 1020.7
20260503203538 76 162 9.6 17.4 0.00 0.00 0.00 36 1019.7
20260503203315 76 151 12.2 17.4 0.00 0.00 0.00 37 1020.8
20260503203035 76 156 9.6 17.4 0.00 0.00 0.00 37 1019.6
20260503202830 76 191 9.6 18.2 0.00 0.00 0.00 36 1020.7
20260503202516 76 184 7.8 12.2 0.00 0.00 0.00 38 1019.6
20260503202326 76 206 8.7 11.3 0.00 0.00 0.00 38 1020.7
20260503202051 75 193 7.0 16.5 0.00 0.00 0.00 38 1019.6
20260503201823 76 191 7.0 16.5 0.00 0.00 0.00 37 1020.6
20260503201542 75 152 11.3 16.5 0.00 0.00 0.00 36 1019.7
20260503201318 76 143 10.4 16.5 0.00 0.00 0.00 36 1020.8
20260503201036 76 173 7.8 13.0 0.00 0.00 0.00 38 1019.8
20260503200815 76 154 8.7 13.0 0.00 0.00 0.00 37 1020.9
20260503200519 76 175 9.6 14.8 0.00 0.00 0.00 38 1020.0
20260503200333 76 123 11.3 14.8 0.00 0.00 0.00 37 1021.0
20260503200012 75 152 2.6 11.3 0.00 0.00 0.00 38 1020.0
20260503195847 76 131 2.6 11.3 0.00 0.00 0.00 39 1021.1
20260503195541 75 162 3.5 11.3 0.00 0.00 0.00 37 1020.3
20260503195320 76 172 7.0 11.3 0.00 0.00 0.00 37 1021.4
20260503195001 76 198 7.8 10.4 0.00 0.00 0.00 37 1020.5
20260503194817 76 172 7.0 9.6 0.00 0.00 0.00 39 1021.5
20260503194601 76 179 4.3 10.4 0.00 0.00 0.00 40 1020.6
20260503194314 76 214 7.8 10.4 0.00 0.00 0.00 38 1021.6
20260503194049 75 237 6.1 10.4 0.00 0.00 0.00 39 1020.6
20260503193829 76 217 7.8 10.4 0.00 0.00 0.00 39 1021.6
20260503193540 75 138 3.5 11.3 0.00 0.00 0.00 39 1020.5
20260503193326 76 192 7.0 13.0 0.00 0.00 0.00 38 1021.6
20260503193037 75 206 6.1 13.0 0.00 0.00 0.00 40 1020.7
20260503192822 76 194 7.0 13.0 0.00 0.00 0.00 39 1021.8
20260503192517 75 202 9.6 13.0 0.00 0.00 0.00 40 1020.9
20260503192333 75 149 7.8 13.0 0.00 0.00 0.00 40 1021.8
20260503192049 75 171 8.7 13.0 0.00 0.00 0.00 38 1020.8
20260503191849 76 143 8.7 13.0 0.00 0.00 0.00 39 1021.8
20260503191512 75 184 4.3 13.0 0.00 0.00 0.00 39 1020.8
20260503191323 75 157 4.3 13.0 0.00 0.00 0.00 39 1021.7
20260503191008 75 185 6.1 13.0 0.00 0.00 0.00 40 1020.8
20260503190820 75 219 6.1 12.2 0.00 0.00 0.00 43 1021.9
20260503190559 74 149 7.8 13.9 0.00 0.00 0.00 41 1021.0
20260503190316 75 187 9.6 14.8 0.00 0.00 0.00 41 1022.0
20260503190052 74 131 7.8 14.8 0.00 0.00 0.00 40 1021.0
20260503185831 75 123 3.5 14.8 0.00 0.00 0.00 39 1022.1
20260503185543 74 149 10.4 14.8 0.00 0.00 0.00 38 1021.2
20260503185328 75 122 7.8 13.9 0.00 0.00 0.00 39 1022.1
20260503185033 75 182 7.0 10.4 0.00 0.00 0.00 42 1021.1
20260503184824 75 85 5.2 10.4 0.00 0.00 0.00 41 1022.1
20260503184524 74 145 4.3 13.0 0.00 0.00 0.00 40 1021.2
20260503184319 74 197 7.0 13.0 0.00 0.00 0.00 39 1022.3
20260503184007 74 199 7.8 13.0 0.00 0.00 0.00 40 1021.5
20260503183835 75 188 9.6 13.0 0.00 0.00 0.00 38 1022.5
20260503183537 74 216 3.5 10.4 0.00 0.00 0.00 40 1021.5
20260503183331 74 172 3.5 10.4 0.00 0.00 0.00 38 1022.5
20260503183031 74 179 6.1 10.4 0.00 0.00 0.00 39 1021.6
20260503182826 75 162 6.1 10.4 0.00 0.00 0.00 41 1022.7
20260503182523 74 214 7.0 12.2 0.00 0.00 0.00 42 1021.8
20260503182321 74 177 5.2 14.8 0.00 0.00 0.00 40 1022.7
20260503182018 73 154 7.8 14.8 0.00 0.00 0.00 39 1021.8
20260503181816 74 187 7.8 14.8 0.00 0.00 0.00 40 1022.9
20260503181600 73 221 8.7 14.8 0.00 0.00 0.00 41 1021.9
20260503181315 74 245 6.1 13.0 0.00 0.00 0.00 42 1023.0
20260503181052 74 204 7.0 13.9 0.00 0.00 0.00 43 1022.1
20260503180830 74 224 5.2 13.9 0.00 0.00 0.00 44 1023.2
20260503180544 74 235 7.0 13.9 0.00 0.00 0.00 44 1022.2
20260503180347 74 206 8.7 13.9 0.00 0.00 0.00 43 1023.2
20260503180007 74 207 5.2 13.0 0.00 0.00 0.00 45 1022.4
20260503175821 74 137 4.3 13.0 0.00 0.00 0.00 44 1023.3
20260503175503 73 153 7.0 13.0 0.00 0.00 0.00 43 1022.5
20260503175317 73 137 6.1 10.4 0.00 0.00 0.00 42 1023.4
20260503175056 73 165 7.0 10.4 0.00 0.00 0.00 40 1022.7
20260503174833 74 195 8.7 10.4 0.00 0.00 0.00 41 1023.6
20260503174547 73 193 5.2 12.2 0.00 0.00 0.00 42 1022.8
20260503174347 73 207 3.5 12.2 0.00 0.00 0.00 41 1023.7
20260503174023 73 185 6.1 12.2 0.00 0.00 0.00 39 1022.7
20260503173843 73 219 9.6 12.2 0.00 0.00 0.00 39 1023.8
20260503173550 73 195 3.5 13.0 0.00 0.00 0.00 38 1022.8
20260503173318 73 214 6.1 13.0 0.00 0.00 0.00 41 1023.8
20260503173040 73 216 6.1 13.0 0.00 0.00 0.00 40 1022.9
20260503172833 73 240 7.8 13.0 0.00 0.00 0.00 39 1023.8
20260503172532 73 206 6.1 9.6 0.00 0.00 0.00 39 1022.8
20260503172330 73 222 6.1 11.3 0.00 0.00 0.00 42 1023.7
20260503172055 72 206 5.2 11.3 0.00 0.00 0.00 41 1022.9
20260503171827 73 241 4.3 11.3 0.00 0.00 0.00 41 1023.8
20260503171608 72 233 7.8 11.3 0.00 0.00 0.00 39 1023.0
20260503171340 73 152 6.1 11.3 0.00 0.00 0.00 39 1023.9
20260503171019 72 197 6.1 11.3 0.00 0.00 0.00 43 1023.0
20260503170816 73 225 6.1 13.9 0.00 0.00 0.00 42 1023.9
20260503170501 72 236 6.1 13.9 0.00 0.00 0.00 42 1023.0
20260503170331 72 209 7.8 13.9 0.00 0.00 0.00 42 1024.1
20260503170105 72 206 5.2 13.0 0.00 0.00 0.00 42 1023.1
20260503150831 68 212 7.0 12.2 0.00 0.00 0.00 60 1024.6
20260503150535 67 235 7.0 12.2 0.00 0.00 0.00 60 1023.6
20260503150322 67 237 5.2 12.2 0.00 0.00 0.00 62 1024.5
20260503131323 58 227 2.6 5.2 0.00 0.00 0.00 78 1023.9
20260503131040 57 256 2.6 6.1 0.00 0.00 0.00 78 1023.1
20260503130820 58 231 1.7 2.6 0.00 0.00 0.00 79 1023.8
20260503130534 57 231 0.9 4.3 0.00 0.00 0.00 79 1023.1
20260503130315 57 231 0.9 4.3 0.00 0.00 0.00 79 1023.9
20260503110817 56 237 2.6 4.3 0.00 0.00 0.00 79 1022.9
20260503110512 55 224 1.7 6.1 0.00 0.00 0.00 79 1022.2
20260503110353 55 237 2.6 6.1 0.00 0.00 0.00 79 1023.0
20260503090333 56 240 3.5 4.3 0.00 0.00 0.00 79 1022.6
20260503081532 55 235 3.5 6.1 0.00 0.00 0.00 77 1021.8
20260503081327 55 231 3.5 4.3 0.00 0.00 0.00 77 1022.5
20260503081010 55 236 2.6 4.3 0.00 0.00 0.00 76 1021.8
20260503080825 55 236 3.5 4.3 0.00 0.00 0.00 76 1022.4
20260503080501 55 236 2.6 4.3 0.00 0.00 0.00 76 1021.8
20260503080321 55 235 2.6 4.3 0.00 0.00 0.00 76 1022.4
20260503072826 56 234 3.5 4.3 0.00 0.00 0.00 75 1022.8
20260503072605 55 232 2.6 4.3 0.00 0.00 0.00 75 1022.2
20260503072322 56 240 3.5 4.3 0.00 0.00 0.00 75 1022.8
20260503072054 55 240 2.6 6.1 0.00 0.00 0.00 75 1022.1
20260503071816 56 238 3.5 6.1 0.00 0.00 0.00 75 1022.9
20260503071605 55 245 2.6 6.1 0.00 0.00 0.00 75 1022.2
20260503071332 56 242 3.5 5.2 0.00 0.00 0.00 75 1023.0
20260503071040 55 241 3.5 5.2 0.00 0.00 0.00 75 1022.4
20260503070847 56 245 3.5 6.1 0.00 0.00 0.00 75 1023.1
20260503070506 55 237 2.6 6.1 0.00 0.00 0.00 75 1022.4
20260503070323 56 237 3.5 6.1 0.00 0.00 0.00 75 1023.0
20260503055054 56 112 0.9 1.7 0.00 0.00 0.00 73 1022.8
20260503054829 57 113 0.9 1.7 0.00 0.00 0.00 73 1023.4
20260503054557 57 113 0.0 1.7 0.00 0.00 0.00 73 1022.8
20260503054326 57 113 0.9 2.6 0.00 0.00 0.00 73 1023.4
20260503054038 57 113 0.0 2.6 0.00 0.00 0.00 73 1022.8
20260503053842 57 113 0.9 3.5 0.00 0.00 0.00 73 1023.4
20260503053502 57 112 1.7 3.5 0.00 0.00 0.00 73 1022.8
20260503053317 57 113 1.7 3.5 0.00 0.00 0.00 73 1023.3
20260503053056 57 113 2.6 3.5 0.00 0.00 0.00 73 1022.9
20260503052815 57 113 2.6 3.5 0.00 0.00 0.00 73 1023.4
20260503052546 57 113 1.7 3.5 0.00 0.00 0.00 73 1022.9
20260503052331 57 113 1.7 3.5 0.00 0.00 0.00 73 1023.3
20260503052040 57 113 1.7 3.5 0.00 0.00 0.00 73 1022.9
20260503051827 57 113 1.7 3.5 0.00 0.00 0.00 73 1023.4
20260503051533 57 112 1.7 3.5 0.00 0.00 0.00 73 1022.9
20260503051322 57 113 1.7 2.6 0.00 0.00 0.00 73 1023.4
20260503051101 57 113 1.7 2.6 0.00 0.00 0.00 73 1022.9
20260503050819 57 112 1.7 3.5 0.00 0.00 0.00 73 1023.5
20260503050550 57 113 1.7 3.5 0.00 0.00 0.00 73 1022.9
20260503050332 57 113 1.7 3.5 0.00 0.00 0.00 73 1023.5
20260503050114 57 112 1.7 3.5 0.00 0.00 0.00 72 1022.9
20260503045822 57 113 1.7 2.6 0.00 0.00 0.00 72 1023.5
20260503045532 57 112 1.7 2.6 0.00 0.00 0.00 72 1023.0
20260503045318 57 113 1.7 2.6 0.00 0.00 0.00 72 1023.4
20260503045024 57 112 0.9 2.6 0.00 0.00 0.00 72 1023.0
20260503044833 57 113 1.7 2.6 0.00 0.00 0.00 72 1023.5
20260503044510 57 112 1.7 2.6 0.00 0.00 0.00 72 1022.9
20260503044329 58 113 1.7 2.6 0.00 0.00 0.00 72 1023.6
20260503044001 57 113 1.7 2.6 0.00 0.00 0.00 72 1023.0
20260503043826 58 112 2.6 2.6 0.00 0.00 0.00 72 1023.5
20260503043558 57 113 1.7 2.6 0.00 0.00 0.00 72 1022.9
20260503043321 58 113 1.7 2.6 0.00 0.00 0.00 72 1023.4
20260503043048 57 112 1.7 3.5 0.00 0.00 0.00 72 1022.7
20260503042816 58 113 1.7 3.5 0.00 0.00 0.00 72 1023.4
20260503042539 57 113 0.9 3.5 0.00 0.00 0.00 72 1022.9
20260503042333 58 112 2.6 3.5 0.00 0.00 0.00 72 1023.5
20260503042033 57 113 1.7 2.6 0.00 0.00 0.00 72 1022.9
20260503041830 58 112 1.7 2.6 0.00 0.00 0.00 72 1023.4
20260503041529 57 113 0.9 2.6 0.00 0.00 0.00 72 1022.8
20260503041325 58 113 1.7 2.6 0.00 0.00 0.00 73 1023.4
20260503041023 57 113 1.7 2.6 0.00 0.00 0.00 73 1022.7
20260503040822 58 112 1.7 2.6 0.00 0.00 0.00 73 1023.4
20260503040515 57 113 1.7 2.6 0.00 0.00 0.00 73 1022.7
20260503040318 57 113 1.7 2.6 0.00 0.00 0.00 74 1023.3
20260503040100 56 112 1.7 2.6 0.00 0.00 0.00 74 1022.7
20260503035833 57 113 1.7 1.7 0.00 0.00 0.00 74 1023.2
20260503035551 56 113 0.9 1.7 0.00 0.00 0.00 74 1022.7
20260503035330 57 113 0.9 1.7 0.00 0.00 0.00 74 1023.2
20260503035046 57 113 0.0 0.0 0.00 0.00 0.00 74 1022.7
20260503034828 57 113 0.0 0.0 0.00 0.00 0.00 74 1023.2
20260503034537 57 113 0.0 0.0 0.00 0.00 0.00 74 1022.6
20260503034325 58 113 0.0 0.0 0.00 0.00 0.00 73 1023.1
20260503034030 57 113 0.0 0.9 0.00 0.00 0.00 73 1022.5
20260503033821 58 113 0.0 1.7 0.00 0.00 0.00 73 1023.0
20260503033527 58 113 0.0 1.7 0.00 0.00 0.00 73 1022.5
20260503033318 58 113 0.0 1.7 0.00 0.00 0.00 73 1023.1
20260503033014 58 113 0.0 0.0 0.00 0.00 0.00 72 1022.7
20260503032814 58 113 0.0 0.0 0.00 0.00 0.00 71 1023.1
20260503032504 58 113 0.0 0.9 0.00 0.00 0.00 71 1022.5
20260503032330 59 113 0.0 0.9 0.00 0.00 0.00 71 1023.0
20260503032058 58 112 0.0 0.9 0.00 0.00 0.00 71 1022.4
20260503032001 58 112 0.0 0.9 0.00 0.00 0.00 72 1022.4
20260503031827 59 114 0.0 0.9 0.00 0.00 0.00 72 1023.0
20260503031533 59 113 0.0 0.9 0.00 0.00 0.00 72 1022.4
20260503031339 59 113 0.0 1.7 0.00 0.00 0.00 71 1022.8
20260503031053 59 113 0.0 1.7 0.00 0.00 0.00 70 1022.2
20260503030815 60 113 0.9 1.7 0.00 0.00 0.00 70 1022.7
20260503030545 59 113 0.0 0.0 0.00 0.00 0.00 70 1022.2
20260503030331 60 112 0.0 0.9 0.00 0.00 0.00 70 1022.7
20260503030036 59 113 0.0 1.7 0.00 0.00 0.00 70 1022.1
20260503025827 60 113 0.0 1.7 0.00 0.00 0.00 70 1022.7
20260503025528 60 112 0.0 2.6 0.00 0.00 0.00 69 1022.0
20260503025344 60 113 1.7 2.6 0.00 0.00 0.00 69 1022.5
20260503025056 60 112 1.7 2.6 0.00 0.00 0.00 69 1022.0
20260503024839 60 113 1.7 2.6 0.00 0.00 0.00 69 1022.5
20260503024526 60 113 1.7 2.6 0.00 0.00 0.00 68 1021.9
20260503024341 61 113 1.7 2.6 0.00 0.00 0.00 68 1022.6
20260503024050 60 113 1.7 2.6 0.00 0.00 0.00 68 1022.1
20260503023830 61 113 1.7 2.6 0.00 0.00 0.00 68 1022.6
20260503023542 60 113 1.7 3.5 0.00 0.00 0.00 68 1022.0
20260503023328 61 113 2.6 3.5 0.00 0.00 0.00 68 1022.5
20260503023037 61 112 1.7 3.5 0.00 0.00 0.00 67 1021.9
20260503022823 61 113 2.6 2.6 0.00 0.00 0.00 67 1022.5
20260503022528 61 113 1.7 2.6 0.00 0.00 0.00 66 1021.8
20260503022318 62 113 1.7 2.6 0.00 0.00 0.00 66 1022.3
20260503022022 61 113 1.7 2.6 0.00 0.00 0.00 66 1021.7
20260503021816 62 113 1.7 2.6 0.00 0.00 0.00 65 1022.3
20260503021516 62 113 0.9 1.7 0.00 0.00 0.00 65 1021.7
20260503021333 63 114 1.7 2.6 0.00 0.00 0.00 64 1022.2
20260503021004 62 113 0.9 2.6 0.00 0.00 0.00 63 1021.5
20260503020829 63 113 1.7 2.6 0.00 0.00 0.00 63 1022.1
20260503020556 63 112 0.9 2.6 0.00 0.00 0.00 62 1021.5
20260503020345 64 113 0.9 2.6 0.00 0.00 0.00 61 1022.1
20260503020026 63 113 0.9 2.6 0.00 0.00 0.00 61 1021.6
20260503015819 64 113 1.7 2.6 0.00 0.00 0.00 60 1022.0
20260503015520 64 112 1.7 2.6 0.00 0.00 0.00 59 1021.6
20260503015315 64 113 1.7 1.7 0.00 0.00 0.00 59 1022.1
20260503015017 64 113 0.9 1.7 0.00 0.00 0.00 59 1021.5
20260503014833 65 113 1.7 2.6 0.00 0.00 0.00 59 1022.1
20260503014602 65 112 0.9 2.6 0.00 0.00 0.00 59 1021.5
20260503014328 66 113 1.7 2.6 0.00 0.00 0.00 60 1022.2
20260503014056 65 113 1.7 2.6 0.00 0.00 0.00 58 1021.6
20260503013844 66 113 1.7 2.6 0.00 0.00 0.00 57 1022.2
20260503013530 66 113 0.9 2.6 0.00 0.00 0.00 57 1021.6
20260503013319 67 113 1.7 1.7 0.00 0.00 0.00 57 1022.0
20260503013027 67 112 0.9 1.7 0.00 0.00 0.00 57 1021.3
20260503012815 68 112 0.9 1.7 0.00 0.00 0.00 55 1021.9
20260503012510 68 113 0.0 1.7 0.00 0.00 0.00 55 1021.3
20260503012333 68 113 0.9 1.7 0.00 0.00 0.00 54 1021.9
20260503012002 68 113 0.9 1.7 0.00 0.00 0.00 53 1021.3
20260503011829 69 112 0.9 1.7 0.00 0.00 0.00 52 1021.8
20260503011620 69 113 0.0 0.9 0.00 0.00 0.00 51 1021.2
20260503011326 69 114 0.0 0.9 0.00 0.00 0.00 50 1021.7
20260503011050 69 113 0.0 0.9 0.00 0.00 0.00 51 1021.1
20260503010822 70 113 0.0 1.7 0.00 0.00 0.00 49 1021.5
20260503010542 69 113 0.0 1.7 0.00 0.00 0.00 48 1021.0
20260503010317 70 113 0.0 1.7 0.00 0.00 0.00 47 1021.5
20260503010037 70 113 0.9 2.6 0.00 0.00 0.00 46 1021.0
20260503005854 70 114 0.9 2.6 0.00 0.00 0.00 47 1021.5
20260503005559 70 112 0.9 2.6 0.00 0.00 0.00 47 1020.9
20260503005329 71 113 0.9 2.6 0.00 0.00 0.00 46 1021.4
20260503005048 70 29 0.9 1.7 0.00 0.00 0.00 46 1021.0
20260503004826 71 29 0.9 1.7 0.00 0.00 0.00 48 1021.5
20260503004547 71 29 0.0 0.9 0.00 0.00 0.00 49 1020.9
20260503004322 72 30 0.0 0.0 0.00 0.00 0.00 49 1021.4
20260503004038 72 29 0.0 0.0 0.00 0.00 0.00 48 1021.0
20260503003818 72 29 0.0 0.0 0.00 0.00 0.00 47 1021.5
20260503003520 72 30 0.0 0.0 0.00 0.00 0.00 46 1021.0
20260503003352 72 29 0.0 0.0 0.00 0.00 0.00 45 1021.4
20260503003053 72 30 0.0 0.0 0.00 0.00 0.00 46 1021.0
20260503002828 73 30 0.0 0.0 0.00 0.00 0.00 46 1021.3
20260503002544 72 29 0.0 0.0 0.00 0.00 0.00 46 1020.9
20260503002324 72 29 0.0 0.9 0.00 0.00 0.00 46 1021.3
20260503002034 72 29 0.0 1.7 0.00 0.00 0.00 46 1020.9
20260503001819 72 29 0.0 1.7 0.00 0.00 0.00 46 1021.4
20260503001528 72 29 0.0 1.7 0.00 0.00 0.00 45 1021.0
20260503001315 72 29 0.0 1.7 0.00 0.00 0.00 45 1021.4
20260503001020 71 29 0.0 1.7 0.00 0.00 0.00 46 1021.1
20260503000831 72 29 0.9 1.7 0.00 0.00 0.00 46 1021.5
20260503000507 71 30 0.0 1.7 0.00 0.00 0.00 48 1021.1
20260503000328 72 29 0.0 1.7 0.00 0.00 0.00 49 1021.5
20260503000105 71 29 0.9 1.7 0.00 0.00 0.00 48 1021.1
20260502235824 71 30 0.9 1.7 0.00 0.00 0.00 48 1021.5
20260502235548 71 29 0.9 2.6 0.00 0.00 0.00 48 1021.1
20260502235318 71 29 0.9 2.6 0.00 0.00 0.00 47 1021.5
20260502235020 70 30 0.9 2.6 0.00 0.00 0.00 47 1021.0
20260502234816 71 30 1.7 2.6 0.00 0.00 0.00 47 1021.5
20260502234513 70 29 0.0 2.6 0.00 0.00 0.00 48 1021.0
20260502234331 71 29 0.9 2.6 0.00 0.00 0.00 49 1021.4
20260502234056 70 29 0.0 1.7 0.00 0.00 0.00 48 1021.0
20260502233826 71 29 0.0 2.6 0.00 0.00 0.00 48 1021.4
20260502233548 70 29 0.0 3.5 0.00 0.00 0.00 47 1021.0
20260502233343 71 29 0.9 3.5 0.00 0.00 0.00 48 1021.4
20260502233020 71 29 0.9 3.5 0.00 0.00 0.00 47 1021.0
20260502232819 71 29 2.6 3.5 0.00 0.00 0.00 46 1021.5
20260502232502 71 359 0.0 2.6 0.00 0.00 0.00 45 1021.0
20260502232315 72 329 0.0 0.0 0.00 0.00 0.00 44 1021.5
20260502232035 71 70 0.0 0.0 0.00 0.00 0.00 43 1021.0
20260502231832 72 31 0.0 0.0 0.00 0.00 0.00 43 1021.5
20260502231534 71 19 0.0 0.0 0.00 0.00 0.00 45 1021.1
20260502231327 72 168 0.0 0.0 0.00 0.00 0.00 44 1021.5
20260502231010 71 64 0.0 0.0 0.00 0.00 0.00 45 1021.1
20260502230825 72 47 0.0 0.0 0.00 0.00 0.00 45 1021.4